Meteo pe oră la Dabcze

Astăzi, 12 Aprilie, Luni

Timp Temperatura Precipitaţii Vânt Presiune Umiditate
00:00 +8°C° 0 mm 4 m/s 751 mmHg 83%
01:00 +8°C° 0 mm 3 m/s 751 mmHg 85%
02:00 +7°C° 0 mm 4 m/s 752 mmHg 87%
03:00 +6°C° 0 mm 4 m/s 752 mmHg 89%
04:00 +6°C° 0 mm 5 m/s 753 mmHg 91%
05:00 +6°C° 0 mm 5 m/s 753 mmHg 90%
06:00 +5°C° 0 mm 5 m/s 754 mmHg 88%
07:00 +5°C° 0 mm 5 m/s 755 mmHg 87%
08:00 +3°C° 0.3 mm 5 m/s 755 mmHg 88%
09:00 +3°C° 0.3 mm 5 m/s 756 mmHg 90%
10:00 +2°C° 0.3 mm 6 m/s 756 mmHg 91%
11:00 +1°C° 0.5 mm 5 m/s 757 mmHg 93%
12:00 +1°C° 0.5 mm 5 m/s 757 mmHg 95%
13:00 +1°C° 0.5 mm 4 m/s 758 mmHg 97%
14:00 +1°C° 0.4 mm 4 m/s 758 mmHg 93%
15:00 +3°C° 0.4 mm 4 m/s 758 mmHg 91%
16:00 +3°C° 0.4 mm 4 m/s 758 mmHg 89%
17:00 +3°C° 0.2 mm 4 m/s 758 mmHg 90%
18:00 +3°C° 0.2 mm 3 m/s 759 mmHg 90%
19:00 +3°C° 0.2 mm 3 m/s 759 mmHg 91%
20:00 +3°C° 0.1 mm 3 m/s 759 mmHg 90%
21:00 +3°C° 0.1 mm 3 m/s 760 mmHg 88%
22:00 +3°C° 0.1 mm 2 m/s 760 mmHg 87%
23:00 +3°C° 0 mm 2 m/s 760 mmHg 87%

Mâine, 13 Aprilie, Marţi

Timp Temperatura Precipitaţii Vânt Presiune Umiditate
00:00 +3°C° 0 mm 2 m/s 760 mmHg 87%
01:00 +3°C° 0 mm 2 m/s 760 mmHg 87%
02:00 +3°C° 0 mm 2 m/s 761 mmHg 86%
03:00 +3°C° 0 mm 2 m/s 761 mmHg 85%
04:00 +4°C° 0 mm 1 m/s 761 mmHg 85%
05:00 +3°C° 0 mm 2 m/s 761 mmHg 83%
06:00 +4°C° 0 mm 2 m/s 761 mmHg 81%
07:00 +4°C° 0 mm 2 m/s 761 mmHg 80%
08:00 +5°C° 0 mm 2 m/s 761 mmHg 73%
09:00 +5°C° 0 mm 3 m/s 762 mmHg 66%
10:00 +7°C° 0 mm 3 m/s 762 mmHg 58%
11:00 +7°C° 0 mm 4 m/s 762 mmHg 52%
12:00 +7°C° 0 mm 4 m/s 761 mmHg 46%
13:00 +8°C° 0 mm 4 m/s 761 mmHg 40%
14:00 +8°C° 0 mm 4 m/s 761 mmHg 41%
15:00 +8°C° 0 mm 4 m/s 761 mmHg 42%
16:00 +9°C° 0 mm 3 m/s 760 mmHg 43%
17:00 +8°C° 0 mm 3 m/s 760 mmHg 47%
18:00 +7°C° 0 mm 3 m/s 760 mmHg 51%
19:00 +6°C° 0 mm 2 m/s 761 mmHg 55%
20:00 +4°C° 0 mm 3 m/s 761 mmHg 59%
21:00 +4°C° 0 mm 3 m/s 761 mmHg 63%
22:00 +3°C° 0 mm 3 m/s 761 mmHg 67%
23:00 +3°C° 0 mm 3 m/s 761 mmHg 69%

Poimâine, 14 Aprilie, Miercuri

Timp Temperatura Precipitaţii Vânt Presiune Umiditate
00:00 +2°C° 0 mm 3 m/s 761 mmHg 71%
01:00 +2°C° 0 mm 3 m/s 761 mmHg 73%
02:00 +2°C° 0 mm 3 m/s 761 mmHg 74%
03:00 +1°C° 0 mm 3 m/s 761 mmHg 74%
04:00 +1°C° 0 mm 3 m/s 761 mmHg 75%
05:00 0°C° 0 mm 4 m/s 761 mmHg 74%
06:00 +1°C° 0 mm 4 m/s 761 mmHg 73%
07:00 +1°C° 0 mm 5 m/s 761 mmHg 73%
08:00 +2°C° 0 mm 5 m/s 761 mmHg 69%
09:00 +3°C° 0 mm 5 m/s 761 mmHg 65%
10:00 +5°C° 0 mm 5 m/s 761 mmHg 61%
11:00 +6°C° 0 mm 5 m/s 760 mmHg 57%
12:00 +6°C° 0 mm 5 m/s 760 mmHg 53%
13:00 +7°C° 0 mm 5 m/s 760 mmHg 49%
14:00 +7°C° 0 mm 5 m/s 759 mmHg 50%
15:00 +7°C° 0 mm 5 m/s 759 mmHg 51%
16:00 +7°C° 0 mm 5 m/s 759 mmHg 53%
17:00 +6°C° 0.1 mm 4 m/s 759 mmHg 57%
18:00 +6°C° 0.1 mm 4 m/s 759 mmHg 60%
19:00 +5°C° 0.1 mm 3 m/s 759 mmHg 64%
20:00 +4°C° 0.1 mm 3 m/s 759 mmHg 66%
21:00 +4°C° 0.1 mm 3 m/s 759 mmHg 69%
22:00 +3°C° 0.1 mm 3 m/s 759 mmHg 72%
23:00 +3°C° 0 mm 3 m/s 759 mmHg 72%

15 Aprilie, Joi

Timp Temperatura Precipitaţii Vânt Presiune Umiditate
00:00 +1°C° 0 mm 4 m/s 759 mmHg 71%
01:00 +1°C° 0 mm 4 m/s 759 mmHg 71%
02:00 +1°C° 0 mm 4 m/s 759 mmHg 72%
03:00 0°C° 0 mm 4 m/s 759 mmHg 72%
04:00 0°C° 0 mm 4 m/s 759 mmHg 72%
05:00 0°C° 0 mm 4 m/s 759 mmHg 73%
06:00 0°C° 0 mm 5 m/s 760 mmHg 73%
07:00 0°C° 0 mm 5 m/s 760 mmHg 73%
08:00 0°C° 0.2 mm 5 m/s 760 mmHg 77%
09:00 +1°C° 0.2 mm 6 m/s 759 mmHg 80%
10:00 +1°C° 0.2 mm 6 m/s 759 mmHg 84%
11:00 +2°C° 0.5 mm 6 m/s 759 mmHg 87%
12:00 +2°C° 0.5 mm 6 m/s 759 mmHg 89%
13:00 +2°C° 0.5 mm 6 m/s 759 mmHg 92%
14:00 +2°C° 0.3 mm 5 m/s 759 mmHg 91%
15:00 +2°C° 0.3 mm 5 m/s 759 mmHg 90%
16:00 +3°C° 0.3 mm 4 m/s 759 mmHg 89%
17:00 +3°C° 0.4 mm 4 m/s 759 mmHg 89%
18:00 +3°C° 0.4 mm 4 m/s 759 mmHg 89%
19:00 +3°C° 0.4 mm 4 m/s 759 mmHg 89%
20:00 +3°C° 0.1 mm 4 m/s 760 mmHg 90%
21:00 +3°C° 0.1 mm 4 m/s 760 mmHg 91%
22:00 +3°C° 0.1 mm 4 m/s 760 mmHg 91%
23:00 +3°C° 0.1 mm 4 m/s 760 mmHg 92%

16 Aprilie, Vineri

Timp Temperatura Precipitaţii Vânt Presiune Umiditate
00:00 +3°C° 0.1 mm 4 m/s 760 mmHg 92%
01:00 +1°C° 0.1 mm 4 m/s 760 mmHg 92%
02:00 +1°C° 0.1 mm 4 m/s 760 mmHg 90%
03:00 +1°C° 0.1 mm 4 m/s 760 mmHg 88%
04:00 +1°C° 0.1 mm 4 m/s 760 mmHg 86%
05:00 +1°C° 0 mm 4 m/s 760 mmHg 85%
06:00 +1°C° 0 mm 4 m/s 760 mmHg 84%
07:00 +1°C° 0 mm 4 m/s 760 mmHg 83%
08:00 +4°C° 0 mm 4 m/s 761 mmHg 79%
09:00 +5°C° 0 mm 4 m/s 761 mmHg 74%
10:00 +6°C° 0 mm 4 m/s 761 mmHg 70%
11:00 +6°C° 0 mm 4 m/s 761 mmHg 71%
12:00 +6°C° 0 mm 4 m/s 761 mmHg 72%
13:00 +6°C° 0 mm 4 m/s 761 mmHg 74%
14:00 +6°C° 0 mm 4 m/s 761 mmHg 77%
15:00 +5°C° 0 mm 4 m/s 761 mmHg 81%
16:00 +5°C° 0 mm 4 m/s 761 mmHg 85%
17:00 +4°C° 0 mm 3 m/s 761 mmHg 88%
18:00 +4°C° 0 mm 3 m/s 761 mmHg 91%
19:00 +3°C° 0 mm 3 m/s 762 mmHg 94%
20:00 +4°C° 0 mm 2 m/s 762 mmHg 94%
21:00 +4°C° 0 mm 2 m/s 762 mmHg 95%
22:00 +4°C° 0 mm 2 m/s 762 mmHg 95%
23:00 +4°C° 0 mm 2 m/s 762 mmHg 96%

17 Aprilie, Sâmbătă

Timp Temperatura Precipitaţii Vânt Presiune Umiditate
00:00 +4°C° 0 mm 2 m/s 762 mmHg 96%
01:00 +3°C° 0 mm 2 m/s 762 mmHg 97%
02:00 +4°C° 0 mm 2 m/s 763 mmHg 96%
03:00 +4°C° 0 mm 2 m/s 763 mmHg 96%
04:00 +5°C° 0 mm 1 m/s 763 mmHg 96%
05:00 +4°C° 0 mm 2 m/s 763 mmHg 95%
06:00 +4°C° 0 mm 2 m/s 763 mmHg 94%
07:00 +5°C° 0 mm 2 m/s 763 mmHg 93%
08:00 +5°C° 0 mm 2 m/s 763 mmHg 92%
09:00 +5°C° 0 mm 3 m/s 763 mmHg 92%
10:00 +5°C° 0 mm 3 m/s 763 mmHg 91%
11:00 +6°C° 0 mm 4 m/s 763 mmHg 88%
12:00 +7°C° 0 mm 4 m/s 763 mmHg 86%
13:00 +8°C° 0 mm 4 m/s 763 mmHg 83%
14:00 +8°C° 0 mm 4 m/s 763 mmHg 81%
15:00 +10°C° 0 mm 3 m/s 763 mmHg 79%
16:00 +10°C° 0 mm 3 m/s 762 mmHg 78%
17:00 +10°C° 0 mm 3 m/s 762 mmHg 79%
18:00 +8°C° 0 mm 4 m/s 762 mmHg 81%
19:00 +8°C° 0 mm 4 m/s 763 mmHg 82%
20:00 +7°C° 0 mm 4 m/s 763 mmHg 83%
21:00 +8°C° 0 mm 3 m/s 763 mmHg 85%
22:00 +7°C° 0 mm 3 m/s 763 mmHg 86%
23:00 +7°C° 0 mm 3 m/s 763 mmHg 87%
Arată mai mult

Formular de consimțământ

Meteoprog și furnizorii noștri de servicii pot stoca și accesa date personale, precum cookies, identificatori de dispozitiv sau alte tehnologii similare pe dispozitivul dumneavoastră și procesa astfel de date pentru a personaliza conținutul și reclamele, dar și pentru a oferi caracteristici de social media și pentru a analiza traficul.

  • Stocarea și/sau accesarea informațiilor pe dispozitivul dumneavoastră

    Cookies, identificatori de dispozitiv sau alte informații pot fi stocate sau accesate pe dispozitiv în scopurile indicate mai sus.

  • Reclame și conținut personalizat, evaluarea reclamelor și a conținutului, informații despre audiențe și dezvoltarea produselor

    Reclamele și conținutul pot fi personalizate pe baza unui profil. Pot fi adăugate date suplimentare pentru a personaliza mai bine reclamele și conținutul. Performanța reclamelor și conținutului poate fi măsurată. Pot fi obținute informații despre utilizatorii care au văzut reclamele și conținutul. Aceste date pot fi utilizate pentru a dezvolta sau îmbunătăți experiența utilizatorilor, sistemele și software-ul.

Dând clic pe ‘Sunt de acord’, permiteți utilizarea cookie-urilor menționate, a identificatorilor de dispozitiv, balizelor web sau altor tehnologii similare. Setările pot fi modificate din browser-ul dispozitivului dumneavoastră.

În anumite scopuri, interesele legitime pot prima asupra consimțământului. Puteți citi mai multe informații în acest sens în Politica privind Confidențialitatea Datelor și Cookie.